TimeMDT,TemperatureF,Dew PointF,Humidity,Sea Level PressureIn,VisibilityMPH,Wind Direction,Wind SpeedMPH,Gust SpeedMPH,PrecipitationIn,Events,Conditions,WindDirDegrees,DateUTC
12:53 AM,57.9,34.0,41,29.49,10.0,South,6.9,-,N/A,,Overcast,190,2013-09-27 06:53:00
1:53 AM,55.9,34.0,44,29.48,10.0,South,8.1,-,N/A,,Overcast,170,2013-09-27 07:53:00
2:53 AM,60.1,41.0,49,29.44,10.0,SW,23.0,33.4,0.00,Rain,Light Rain,230,2013-09-27 08:53:00
3:53 AM,52.0,46.9,83,29.53,9.0,WSW,19.6,27.6,0.00,Rain,Light Rain,250,2013-09-27 09:53:00
4:53 AM,50.0,46.0,86,29.54,10.0,West,5.8,-,0.01,,Mostly Cloudy,260,2013-09-27 10:53:00
5:53 AM,48.9,42.1,77,29.58,10.0,West,9.2,-,0.00,Rain,Light Rain,280,2013-09-27 11:53:00
6:39 AM,46.4,42.8,87,29.97,5.0,West,4.6,-,0.04,Rain,Rain,260,2013-09-27 12:39:00
6:48 AM,46.4,42.8,87,29.97,8.0,WNW,10.4,-,0.05,Rain,Light Rain,290,2013-09-27 12:48:00
6:53 AM,45.0,39.9,82,29.66,9.0,WNW,9.2,-,0.05,Rain,Light Rain,290,2013-09-27 12:53:00
7:37 AM,44.6,42.8,93,29.98,10.0,NW,4.6,-,0.03,,Overcast,320,2013-09-27 13:37:00
7:53 AM,45.0,41.0,86,29.69,10.0,NNW,4.6,-,0.03,,Overcast,340,2013-09-27 13:53:00
8:53 AM,45.0,37.0,74,29.73,10.0,WNW,4.6,-,N/A,Rain,Light Rain,290,2013-09-27 14:53:00
9:53 AM,46.0,37.9,73,29.75,10.0,NW,3.5,-,0.00,Rain,Light Rain,320,2013-09-27 15:53:00
10:12 AM,46.4,39.2,76,30.04,10.0,NW,5.8,-,0.01,Rain,Light Rain,320,2013-09-27 16:12:00
10:53 AM,46.0,36.0,68,29.80,10.0,West,8.1,-,0.01,,Overcast,260,2013-09-27 16:53:00
11:53 AM,46.0,37.9,73,29.82,10.0,West,10.4,-,0.00,,Overcast,260,2013-09-27 17:53:00
12:53 PM,48.0,36.0,63,29.82,10.0,SW,13.8,18.4,N/A,,Overcast,230,2013-09-27 18:53:00
1:53 PM,48.9,37.0,64,29.81,10.0,SW,11.5,-,N/A,,Overcast,230,2013-09-27 19:53:00
2:53 PM,53.1,37.9,57,29.74,10.0,SW,10.4,-,N/A,,Mostly Cloudy,220,2013-09-27 20:53:00
3:53 PM,57.0,28.9,34,29.78,10.0,West,16.1,20.7,N/A,,Clear,280,2013-09-27 21:53:00
4:53 PM,57.9,21.0,24,29.79,10.0,West,13.8,18.4,N/A,,Clear,270,2013-09-27 22:53:00
5:53 PM,57.0,16.0,20,29.83,10.0,WNW,13.8,-,N/A,,Clear,290,2013-09-27 23:53:00
6:53 PM,54.0,15.1,22,29.88,10.0,NW,8.1,-,N/A,,Clear,310,2013-09-28 00:53:00
7:53 PM,50.0,17.1,27,29.94,10.0,NW,6.9,-,N/A,,Clear,320,2013-09-28 01:53:00
8:53 PM,44.1,21.0,40,30.02,10.0,Calm,Calm,-,N/A,,Clear,0,2013-09-28 02:53:00
9:53 PM,37.9,25.0,60,30.08,10.0,Calm,Calm,-,N/A,,Clear,0,2013-09-28 03:53:00
10:53 PM,36.0,25.0,64,30.11,10.0,Calm,Calm,-,N/A,,Clear,0,2013-09-28 04:53:00
11:53 PM,33.1,25.0,72,30.14,10.0,Calm,Calm,-,N/A,,Clear,0,2013-09-28 05:53:00